| time (UTC) | temp F | wind direction | speed knots | gust knots | rain 1hr in | rain 24hr in | rain mn in | humidity % | barometer mb |
| 20260506233048 | 47 | 295 | 0.9 | 6.1 | 0.00 | 0.64 | 0.00 | 91 | 1009.8 |
| 20260506232530 | 47 | 0 | 0.9 | 6.1 | 0.00 | 0.64 | 0.00 | 91 | 1009.7 |
| 20260506232030 | 47 | 279 | 0.9 | 5.2 | 0.00 | 0.64 | 0.00 | 91 | 1009.5 |
| 20260506231538 | 47 | 328 | 0.9 | 5.2 | 0.00 | 0.64 | 0.00 | 91 | 1009.5 |
| 20260506231032 | 47 | 303 | 0.0 | 5.2 | 0.00 | 0.64 | 0.00 | 91 | 1009.6 |
| 20260506230531 | 47 | 0 | 0.0 | 5.2 | 0.00 | 0.64 | 0.00 | 91 | 1009.5 |
| 20260506230042 | 47 | 295 | 0.9 | 5.2 | 0.00 | 0.64 | 0.00 | 91 | 1009.5 |
| 20260506225530 | 47 | 0 | 0.0 | 5.2 | 0.00 | 0.73 | 0.00 | 91 | 1009.6 |
| 20260506225030 | 47 | 0 | 0.9 | 5.2 | 0.00 | 0.73 | 0.00 | 90 | 1009.5 |
| 20260506224549 | 47 | 285 | 0.9 | 5.2 | 0.00 | 0.73 | 0.00 | 90 | 1009.4 |
| 20260506224030 | 47 | 287 | 0.9 | 3.5 | 0.00 | 0.73 | 0.00 | 90 | 1009.4 |
| 20260506223531 | 47 | 0 | 0.9 | 3.5 | 0.00 | 0.73 | 0.00 | 90 | 1009.4 |
| 20260506223041 | 47 | 0 | 0.0 | 4.3 | 0.00 | 0.73 | 0.00 | 90 | 1009.4 |
| 20260506222531 | 47 | 0 | 0.0 | 4.3 | 0.00 | 0.73 | 0.00 | 90 | 1009.4 |
| 20260506222033 | 47 | 335 | 0.0 | 4.3 | 0.00 | 0.73 | 0.00 | 90 | 1009.4 |
| 20260506221555 | 47 | 0 | 0.9 | 4.3 | 0.00 | 0.73 | 0.00 | 90 | 1009.4 |
| 20260506221030 | 47 | 343 | 0.0 | 5.2 | 0.00 | 0.73 | 0.00 | 90 | 1009.3 |
| 20260506220532 | 47 | 333 | 1.7 | 5.2 | 0.00 | 0.73 | 0.00 | 90 | 1009.4 |
| 20260506220046 | 47 | 0 | 0.9 | 3.5 | 0.00 | 0.73 | 0.00 | 90 | 1009.3 |
| 20260506215530 | 47 | 0 | 0.0 | 3.5 | 0.00 | 0.88 | 0.73 | 90 | 1009.3 |
| 20260506215030 | 47 | 0 | 0.0 | 3.5 | 0.00 | 0.88 | 0.73 | 90 | 1009.3 |
| 20260506214541 | 47 | 0 | 0.0 | 3.5 | 0.00 | 0.88 | 0.73 | 90 | 1009.3 |
| 20260506214031 | 47 | 291 | 0.9 | 3.5 | 0.00 | 0.88 | 0.73 | 90 | 1009.3 |
| 20260506213532 | 47 | 0 | 0.0 | 3.5 | 0.00 | 0.88 | 0.73 | 90 | 1009.3 |
| 20260506213043 | 47 | 0 | 0.0 | 3.5 | 0.00 | 0.88 | 0.73 | 90 | 1009.3 |
| 20260506212530 | 47 | 0 | 0.0 | 5.2 | 0.00 | 0.88 | 0.73 | 90 | 1009.3 |
| 20260506212032 | 47 | 281 | 0.0 | 5.2 | 0.00 | 0.88 | 0.73 | 90 | 1009.2 |
| 20260506211552 | 47 | 0 | 0.0 | 5.2 | 0.00 | 0.88 | 0.73 | 90 | 1009.2 |
| 20260506211030 | 47 | 0 | 0.0 | 5.2 | 0.00 | 0.88 | 0.73 | 90 | 1009.1 |
| 20260506210530 | 47 | 295 | 0.0 | 5.2 | 0.00 | 0.88 | 0.73 | 90 | 1009.2 |
| 20260506210047 | 47 | 0 | 0.0 | 5.2 | 0.00 | 0.88 | 0.73 | 90 | 1009.1 |
| 20260506205530 | 47 | 0 | 0.0 | 5.2 | 0.00 | 0.93 | 0.73 | 90 | 1009.1 |
| 20260506205030 | 47 | 0 | 0.0 | 4.3 | 0.00 | 0.93 | 0.73 | 90 | 1009.1 |
| 20260506204543 | 47 | 320 | 0.9 | 4.3 | 0.00 | 0.93 | 0.73 | 90 | 1009.1 |
| 20260506204031 | 47 | 0 | 0.9 | 5.2 | 0.00 | 0.93 | 0.73 | 90 | 1009.1 |
| 20260506203530 | 47 | 0 | 0.0 | 5.2 | 0.00 | 0.93 | 0.73 | 90 | 1009.1 |
| 20260506203049 | 47 | 314 | 1.7 | 5.2 | 0.00 | 0.93 | 0.73 | 90 | 1009.0 |
| 20260506202531 | 47 | 13 | 0.9 | 4.3 | 0.00 | 0.93 | 0.73 | 90 | 1008.9 |
| 20260506202033 | 47 | 38 | 0.9 | 3.5 | 0.00 | 0.93 | 0.73 | 90 | 1009.0 |
| 20260506201541 | 47 | 310 | 0.0 | 6.1 | 0.00 | 0.93 | 0.73 | 90 | 1008.9 |
| 20260506201032 | 47 | 335 | 0.0 | 7.0 | 0.00 | 0.93 | 0.73 | 90 | 1008.9 |
| 20260506200530 | 47 | 324 | 2.6 | 7.0 | 0.00 | 0.92 | 0.72 | 90 | 1008.9 |
| 20260506200042 | 47 | 345 | 0.0 | 5.2 | 0.00 | 0.92 | 0.72 | 90 | 1008.8 |
| 20260506195530 | 47 | 19 | 0.9 | 5.2 | 0.00 | 1.06 | 0.72 | 90 | 1008.8 |
| 20260506195030 | 47 | 329 | 0.9 | 4.3 | 0.00 | 1.06 | 0.72 | 90 | 1008.8 |
| 20260506194544 | 48 | 328 | 0.9 | 5.2 | 0.00 | 1.06 | 0.72 | 90 | 1008.8 |
| 20260506194031 | 48 | 0 | 0.9 | 5.2 | 0.00 | 1.06 | 0.72 | 90 | 1008.7 |
| 20260506193530 | 48 | 0 | 0.9 | 6.1 | 0.00 | 1.06 | 0.72 | 90 | 1008.7 |
| 20260506193050 | 48 | 6 | 0.9 | 6.1 | 0.00 | 1.06 | 0.72 | 90 | 1008.7 |
| 20260506192532 | 48 | 293 | 0.9 | 6.1 | 0.00 | 1.06 | 0.72 | 90 | 1008.6 |
| 20260506192028 | 48 | 353 | 0.9 | 5.2 | 0.00 | 1.06 | 0.72 | 90 | 1008.5 |
| 20260506191539 | 48 | 270 | 0.9 | 5.2 | 0.01 | 1.06 | 0.72 | 90 | 1008.4 |
| 20260506191031 | 48 | 0 | 0.0 | 3.5 | 0.01 | 1.06 | 0.72 | 90 | 1008.5 |
| 20260506190531 | 48 | 332 | 0.9 | 3.5 | 0.01 | 1.06 | 0.72 | 90 | 1008.4 |
| 20260506190038 | 48 | 0 | 0.0 | 4.3 | 0.00 | 1.05 | 0.71 | 90 | 1008.3 |
| 20260506185531 | 48 | 0 | 0.0 | 4.3 | 0.00 | 1.07 | 0.71 | 90 | 1008.3 |
| 20260506185031 | 48 | 345 | 0.0 | 4.3 | 0.00 | 1.07 | 0.71 | 90 | 1008.3 |
| 20260506184543 | 48 | 0 | 0.9 | 4.3 | 0.00 | 1.07 | 0.71 | 90 | 1008.1 |
| 20260506184032 | 48 | 317 | 0.0 | 4.3 | 0.00 | 1.07 | 0.71 | 90 | 1008.1 |
| 20260506183529 | 48 | 0 | 0.0 | 4.3 | 0.00 | 1.07 | 0.71 | 90 | 1008.1 |
| 20260506183040 | 48 | 0 | 0.0 | 4.3 | 0.00 | 1.07 | 0.71 | 90 | 1008.1 |
| 20260506182530 | 48 | 336 | 0.0 | 3.5 | 0.00 | 1.07 | 0.71 | 90 | 1008.1 |
| 20260506182030 | 48 | 0 | 0.0 | 4.3 | 0.00 | 1.07 | 0.71 | 90 | 1008.0 |
| 20260506181555 | 48 | 0 | 0.9 | 6.1 | 0.00 | 1.06 | 0.70 | 90 | 1007.9 |
| 20260506181031 | 48 | 343 | 1.7 | 6.1 | 0.00 | 1.06 | 0.70 | 89 | 1007.9 |
| 20260506180532 | 48 | 344 | 0.9 | 5.2 | 0.00 | 1.06 | 0.70 | 89 | 1007.8 |
| 20260506180038 | 48 | 0 | 1.7 | 6.1 | 0.00 | 1.06 | 0.70 | 90 | 1007.8 |
| 20260506175530 | 49 | 16 | 1.7 | 6.1 | 0.00 | 1.06 | 0.70 | 90 | 1007.7 |
| 20260506175030 | 49 | 0 | 1.7 | 5.2 | 0.00 | 1.06 | 0.70 | 90 | 1007.7 |
| 20260506174540 | 49 | 330 | 0.9 | 5.2 | 0.00 | 1.06 | 0.70 | 90 | 1007.7 |
| 20260506174035 | 49 | 0 | 0.0 | 4.3 | 0.00 | 1.06 | 0.70 | 90 | 1007.6 |
| 20260506173534 | 49 | 0 | 0.9 | 4.3 | 0.00 | 1.06 | 0.70 | 90 | 1007.7 |
| 20260506173111 | 49 | 0 | 0.0 | 6.1 | 0.00 | 1.06 | 0.70 | 90 | 1007.5 |
| 20260506172532 | 49 | 350 | 2.6 | 6.1 | 0.00 | 1.06 | 0.70 | 90 | 1007.5 |
| 20260506172030 | 49 | 287 | 1.7 | 7.0 | 0.00 | 1.06 | 0.70 | 90 | 1007.5 |
| 20260506171545 | 49 | 311 | 2.6 | 8.7 | 0.00 | 1.06 | 0.70 | 90 | 1007.4 |
| 20260506171032 | 49 | 283 | 3.5 | 8.7 | 0.00 | 1.06 | 0.70 | 90 | 1007.3 |
| 20260506170531 | 49 | 4 | 2.6 | 7.8 | 0.00 | 1.06 | 0.70 | 90 | 1007.3 |
| 20260506170056 | 49 | 0 | 1.7 | 7.8 | 0.00 | 1.06 | 0.70 | 90 | 1007.3 |
| 20260506165530 | 49 | 325 | 0.9 | 7.0 | 0.00 | 1.06 | 0.70 | 90 | 1007.3 |
| 20260506165031 | 49 | 331 | 0.9 | 8.7 | 0.00 | 1.06 | 0.70 | 90 | 1007.3 |
| 20260506164540 | 49 | 344 | 2.6 | 8.7 | 0.00 | 1.06 | 0.70 | 90 | 1007.3 |
| 20260506164034 | 49 | 0 | 3.5 | 7.0 | 0.00 | 1.06 | 0.70 | 90 | 1007.3 |
| 20260506163527 | 49 | 41 | 1.7 | 7.8 | 0.00 | 1.06 | 0.70 | 90 | 1007.2 |
| 20260506163051 | 49 | 352 | 3.5 | 7.8 | 0.00 | 1.06 | 0.70 | 90 | 1007.2 |
| 20260506162532 | 49 | 16 | 0.0 | 4.3 | 0.00 | 1.06 | 0.70 | 90 | 1007.2 |
| 20260506162030 | 49 | 0 | 1.7 | 5.2 | 0.00 | 1.06 | 0.70 | 90 | 1007.2 |
| 20260506161544 | 49 | 343 | 0.9 | 5.2 | 0.01 | 1.06 | 0.70 | 90 | 1007.2 |
| 20260506161032 | 49 | 0 | 0.9 | 4.3 | 0.01 | 1.06 | 0.70 | 90 | 1007.3 |
| 20260506160532 | 49 | 0 | 0.0 | 4.3 | 0.01 | 1.06 | 0.70 | 90 | 1007.2 |
| 20260506160045 | 49 | 55 | 1.7 | 7.8 | 0.00 | 1.05 | 0.70 | 90 | 1007.2 |
| 20260506155531 | 49 | 0 | 2.6 | 7.8 | 0.00 | 1.05 | 0.70 | 90 | 1007.2 |
| 20260506155030 | 49 | 335 | 0.9 | 6.1 | 0.00 | 1.05 | 0.70 | 90 | 1007.1 |
| 20260506154604 | 49 | 0 | 0.9 | 7.8 | 0.00 | 1.05 | 0.70 | 90 | 1007.2 |
| 20260506154031 | 49 | 31 | 2.6 | 7.8 | 0.00 | 1.05 | 0.70 | 90 | 1007.2 |
| 20260506153531 | 49 | 349 | 0.0 | 7.0 | 0.00 | 1.05 | 0.70 | 90 | 1007.2 |
| 20260506153037 | 49 | 34 | 0.9 | 7.8 | 0.01 | 1.05 | 0.70 | 90 | 1007.1 |
| 20260506152530 | 49 | 0 | 2.6 | 7.8 | 0.01 | 1.05 | 0.70 | 90 | 1007.1 |
| 20260506152030 | 49 | 0 | 1.7 | 6.1 | 0.01 | 1.05 | 0.70 | 90 | 1007.1 |
| 20260506151544 | 49 | 357 | 0.9 | 5.2 | 0.00 | 1.04 | 0.69 | 90 | 1007.2 |
| 20260506151031 | 49 | 0 | 0.9 | 4.3 | 0.00 | 1.04 | 0.69 | 90 | 1007.2 |
| 20260506150528 | 49 | 0 | 0.9 | 4.3 | 0.00 | 1.04 | 0.69 | 90 | 1007.1 |
| 20260506150041 | 49 | 16 | 0.9 | 5.2 | 0.00 | 1.04 | 0.69 | 90 | 1007.0 |
| 20260506145533 | 49 | 0 | 0.9 | 7.8 | 0.01 | 1.07 | 0.69 | 90 | 1006.9 |
| 20260506145030 | 49 | 349 | 2.6 | 7.8 | 0.01 | 1.07 | 0.69 | 90 | 1007.0 |
| 20260506144550 | 49 | 0 | 1.7 | 7.0 | 0.01 | 1.07 | 0.69 | 90 | 1006.9 |
| 20260506144031 | 49 | 347 | 1.7 | 7.0 | 0.02 | 1.07 | 0.69 | 90 | 1006.9 |
| 20260506143532 | 49 | 0 | 0.9 | 7.0 | 0.02 | 1.07 | 0.69 | 90 | 1007.0 |
| 20260506143041 | 49 | 0 | 1.7 | 7.0 | 0.01 | 1.07 | 0.68 | 90 | 1006.9 |
| 20260506142532 | 49 | 0 | 0.0 | 5.2 | 0.02 | 1.07 | 0.68 | 90 | 1006.9 |
| 20260506142030 | 49 | 0 | 0.0 | 5.2 | 0.02 | 1.07 | 0.68 | 90 | 1006.9 |
| 20260506141537 | 49 | 308 | 0.9 | 4.3 | 0.02 | 1.07 | 0.68 | 90 | 1006.9 |
| 20260506141032 | 49 | 256 | 0.0 | 4.3 | 0.02 | 1.07 | 0.68 | 90 | 1006.8 |
| 20260506140530 | 49 | 0 | 0.9 | 4.3 | 0.02 | 1.07 | 0.68 | 90 | 1006.8 |
| 20260506140040 | 49 | 31 | 0.9 | 4.3 | 0.02 | 1.07 | 0.68 | 90 | 1006.8 |
| 20260506135531 | 49 | 289 | 0.0 | 3.5 | 0.01 | 1.06 | 0.67 | 90 | 1006.8 |
| 20260506135031 | 49 | 289 | 0.0 | 4.3 | 0.01 | 1.06 | 0.67 | 90 | 1006.8 |
| 20260506134542 | 49 | 297 | 0.9 | 4.3 | 0.01 | 1.06 | 0.67 | 90 | 1006.8 |
| 20260506134031 | 49 | 303 | 0.9 | 5.2 | 0.00 | 1.05 | 0.66 | 90 | 1006.8 |
| 20260506133531 | 49 | 0 | 0.9 | 5.2 | 0.00 | 1.05 | 0.66 | 90 | 1006.8 |
| 20260506133056 | 49 | 21 | 0.9 | 3.5 | 0.00 | 1.05 | 0.66 | 90 | 1006.8 |
| 20260506132530 | 49 | 0 | 0.9 | 3.5 | 0.00 | 1.04 | 0.66 | 90 | 1006.9 |
| 20260506132035 | 48 | 279 | 0.9 | 3.5 | 0.00 | 1.04 | 0.66 | 90 | 1006.8 |
| 20260506131539 | 49 | 269 | 0.9 | 3.5 | 0.00 | 1.04 | 0.66 | 89 | 1006.8 |
| 20260506131032 | 49 | 0 | 0.0 | 4.3 | 0.00 | 1.04 | 0.66 | 89 | 1006.8 |
| 20260506130533 | 49 | 0 | 0.0 | 4.3 | 0.00 | 1.04 | 0.66 | 90 | 1006.8 |
| 20260506130040 | 49 | 0 | 0.9 | 4.3 | 0.00 | 1.04 | 0.66 | 90 | 1006.8 |
| 20260506125530 | 49 | 276 | 0.0 | 6.1 | 0.00 | 1.04 | 0.66 | 89 | 1006.7 |
| 20260506125030 | 49 | 307 | 0.9 | 6.1 | 0.00 | 1.04 | 0.66 | 90 | 1006.6 |
| 20260506124539 | 49 | 299 | 1.7 | 7.0 | 0.00 | 1.04 | 0.66 | 89 | 1006.7 |
| 20260506124031 | 49 | 0 | 0.9 | 7.0 | 0.00 | 1.04 | 0.66 | 90 | 1006.5 |
| 20260506123532 | 49 | 318 | 0.9 | 5.2 | 0.00 | 1.04 | 0.66 | 90 | 1006.6 |
| 20260506123044 | 49 | 12 | 0.9 | 6.1 | 0.00 | 1.04 | 0.66 | 90 | 1006.6 |
| 20260506122531 | 49 | 0 | 0.9 | 7.8 | 0.00 | 1.04 | 0.66 | 90 | 1006.5 |
| 20260506122031 | 49 | 330 | 0.9 | 7.8 | 0.00 | 1.04 | 0.66 | 89 | 1006.4 |
| 20260506121544 | 50 | 287 | 1.7 | 7.8 | 0.00 | 1.04 | 0.66 | 90 | 1006.4 |
| 20260506121031 | 50 | 21 | 0.9 | 5.2 | 0.00 | 1.04 | 0.66 | 90 | 1006.4 |
| 20260506120528 | 50 | 276 | 0.9 | 5.2 | 0.00 | 1.04 | 0.66 | 90 | 1006.3 |
| 20260506120043 | 50 | 318 | 0.9 | 6.1 | 0.00 | 1.04 | 0.66 | 90 | 1006.1 |
| 20260506115531 | 51 | 299 | 1.7 | 6.1 | 0.00 | 1.04 | 0.66 | 90 | 1006.1 |
| 20260506115030 | 51 | 359 | 2.6 | 6.1 | 0.00 | 1.04 | 0.66 | 90 | 1006.1 |
| 20260506114546 | 50 | 0 | 1.7 | 6.1 | 0.00 | 1.04 | 0.66 | 90 | 1006.0 |
| 20260506114032 | 50 | 30 | 1.7 | 6.1 | 0.00 | 1.04 | 0.66 | 91 | 1006.0 |
| 20260506113530 | 50 | 358 | 1.7 | 5.2 | 0.00 | 1.04 | 0.66 | 91 | 1006.1 |
| 20260506113046 | 50 | 25 | 1.7 | 6.1 | 0.00 | 1.04 | 0.66 | 90 | 1006.1 |
| 20260506112531 | 50 | 0 | 1.7 | 6.1 | 0.00 | 1.04 | 0.66 | 91 | 1006.1 |
| 20260506112030 | 50 | 331 | 1.7 | 6.1 | 0.00 | 1.04 | 0.66 | 91 | 1006.1 |
| 20260506111546 | 50 | 0 | 0.0 | 7.0 | 0.00 | 1.04 | 0.66 | 91 | 1006.1 |
| 20260506111031 | 50 | 19 | 1.7 | 9.6 | 0.00 | 1.04 | 0.66 | 91 | 1006.1 |
| 20260506110531 | 50 | 51 | 4.3 | 9.6 | 0.00 | 1.04 | 0.66 | 91 | 1006.1 |
| 20260506110046 | 49 | 354 | 2.6 | 7.8 | 0.00 | 1.04 | 0.66 | 90 | 1006.0 |
| 20260506105531 | 49 | 352 | 0.9 | 7.8 | 0.01 | 1.04 | 0.66 | 91 | 1006.1 |
| 20260506105029 | 49 | 345 | 1.7 | 7.8 | 0.01 | 1.04 | 0.66 | 91 | 1006.0 |
| 20260506104607 | 49 | 356 | 1.7 | 7.8 | 0.01 | 1.04 | 0.66 | 91 | 1006.0 |
| 20260506104033 | 49 | 344 | 3.5 | 7.8 | 0.01 | 1.04 | 0.66 | 91 | 1005.9 |
| 20260506103533 | 49 | 310 | 2.6 | 7.8 | 0.01 | 1.04 | 0.66 | 91 | 1006.0 |
| 20260506103042 | 49 | 304 | 2.6 | 6.1 | 0.01 | 1.04 | 0.66 | 91 | 1006.0 |
| 20260506102533 | 49 | 327 | 0.9 | 6.1 | 0.01 | 1.04 | 0.66 | 90 | 1005.9 |
| 20260506102031 | 50 | 0 | 2.6 | 7.8 | 0.00 | 1.03 | 0.65 | 91 | 1005.9 |
| 20260506101542 | 49 | 355 | 2.6 | 7.8 | 0.00 | 1.03 | 0.65 | 90 | 1005.8 |
| 20260506101032 | 49 | 10 | 3.5 | 7.8 | 0.00 | 1.03 | 0.65 | 91 | 1005.8 |
| 20260506100530 | 49 | 25 | 2.6 | 7.8 | 0.00 | 1.03 | 0.65 | 90 | 1005.8 |
| 20260506100046 | 49 | 335 | 2.6 | 8.7 | 0.00 | 1.03 | 0.65 | 90 | 1005.7 |
| 20260506095530 | 49 | 297 | 3.5 | 8.7 | 0.00 | 1.03 | 0.64 | 90 | 1005.7 |
| 20260506095028 | 49 | 270 | 1.7 | 7.0 | 0.00 | 1.03 | 0.64 | 90 | 1005.6 |
| 20260506094543 | 49 | 308 | 1.7 | 7.0 | 0.00 | 1.03 | 0.64 | 90 | 1005.7 |
| 20260506094029 | 50 | 9 | 1.7 | 7.0 | 0.00 | 1.03 | 0.64 | 90 | 1005.5 |
| 20260506093528 | 50 | 335 | 1.7 | 5.2 | 0.00 | 1.03 | 0.64 | 90 | 1005.5 |
| 20260506093043 | 50 | 347 | 0.9 | 6.1 | 0.00 | 1.03 | 0.64 | 90 | 1005.6 |
| 20260506092531 | 51 | 348 | 1.7 | 6.1 | 0.00 | 1.03 | 0.64 | 90 | 1005.5 |
| 20260506092027 | 52 | 0 | 0.9 | 5.2 | 0.00 | 1.03 | 0.64 | 90 | 1005.4 |
| 20260506091539 | 52 | 0 | 1.7 | 7.0 | 0.01 | 1.03 | 0.64 | 90 | 1005.4 |
| 20260506091035 | 52 | 6 | 2.6 | 7.0 | 0.01 | 1.03 | 0.64 | 91 | 1005.2 |
| 20260506090532 | 52 | 12 | 2.6 | 7.8 | 0.01 | 1.03 | 0.64 | 91 | 1005.2 |
| 20260506090044 | 52 | 43 | 3.5 | 7.8 | 0.02 | 1.03 | 0.64 | 91 | 1005.3 |
| 20260506085532 | 52 | 0 | 2.6 | 6.1 | 0.01 | 1.02 | 0.63 | 91 | 1005.2 |
| 20260506085030 | 52 | 41 | 2.6 | 7.8 | 0.01 | 1.02 | 0.63 | 91 | 1005.2 |
| 20260506084540 | 52 | 59 | 3.5 | 8.7 | 0.01 | 1.02 | 0.63 | 91 | 1005.1 |
| 20260506084033 | 52 | 37 | 4.3 | 8.7 | 0.01 | 1.02 | 0.63 | 91 | 1005.1 |
| 20260506083531 | 52 | 31 | 2.6 | 6.1 | 0.01 | 1.02 | 0.63 | 91 | 1005.1 |
| 20260506083048 | 52 | 14 | 1.7 | 4.3 | 0.02 | 1.02 | 0.63 | 91 | 1005.1 |
| 20260506082532 | 52 | 41 | 2.6 | 4.3 | 0.02 | 1.02 | 0.63 | 91 | 1005.0 |
| 20260506082030 | 52 | 18 | 1.7 | 4.3 | 0.02 | 1.02 | 0.63 | 91 | 1005.1 |
| 20260506081542 | 52 | 38 | 1.7 | 7.0 | 0.02 | 1.01 | 0.62 | 91 | 1005.0 |
| 20260506081032 | 52 | 21 | 2.6 | 7.0 | 0.03 | 1.01 | 0.62 | 91 | 1005.0 |
| 20260506080528 | 51 | 39 | 2.6 | 7.0 | 0.03 | 1.01 | 0.62 | 91 | 1004.9 |
| 20260506073041 | 52 | 13 | 3.5 | 7.0 | 0.04 | 1.00 | 0.61 | 91 | 1004.8 |
| 20260506072535 | 52 | 28 | 1.7 | 7.0 | 0.05 | 1.00 | 0.61 | 91 | 1004.7 |
| 20260506072030 | 51 | 337 | 2.6 | 6.1 | 0.05 | 1.00 | 0.61 | 91 | 1004.8 |
| 20260506071540 | 51 | 337 | 2.6 | 5.2 | 0.05 | 0.99 | 0.60 | 91 | 1004.8 |
| 20260506071028 | 52 | 342 | 0.0 | 4.3 | 0.04 | 0.98 | 0.59 | 91 | 1004.7 |
| 20260506070531 | 52 | 336 | 1.7 | 5.2 | 0.03 | 0.97 | 0.59 | 91 | 1004.6 |
| 20260506062027 | 52 | 11 | 1.7 | 4.3 | 0.03 | 0.94 | 0.55 | 91 | 1004.6 |
| 20260506061540 | 52 | 0 | 0.9 | 3.5 | 0.02 | 0.93 | 0.55 | 91 | 1004.4 |
| 20260506061029 | 52 | 10 | 0.9 | 3.5 | 0.03 | 0.93 | 0.55 | 91 | 1004.4 |
| 20260506060529 | 52 | 29 | 1.7 | 4.3 | 0.03 | 0.93 | 0.55 | 91 | 1004.3 |
| 20260506051027 | 51 | 44 | 1.7 | 4.3 | 0.06 | 0.90 | 0.51 | 91 | 1004.4 |
| 20260506050527 | 52 | 355 | 0.9 | 3.5 | 0.05 | 0.89 | 0.51 | 91 | 1004.5 |
| 20260506045030 | 52 | 66 | 0.0 | 2.6 | 0.06 | 0.88 | 0.50 | 91 | 1004.5 |
| 20260506044538 | 51 | 66 | 0.9 | 3.5 | 0.05 | 0.88 | 0.49 | 91 | 1004.4 |
| 20260506044032 | 51 | 55 | 0.9 | 3.5 | 0.04 | 0.87 | 0.48 | 91 | 1004.3 |
| 20260506043532 | 51 | 0 | 0.9 | 3.5 | 0.05 | 0.87 | 0.48 | 91 | 1004.4 |
| 20260506043052 | 51 | 0 | 0.0 | 2.6 | 0.05 | 0.86 | 0.48 | 91 | 1004.4 |
| 20260506042532 | 51 | 0 | 0.0 | 4.3 | 0.04 | 0.85 | 0.47 | 91 | 1004.4 |
| 20260506042030 | 51 | 30 | 0.9 | 7.8 | 0.04 | 0.85 | 0.46 | 90 | 1004.4 |
| 20260506041553 | 51 | 60 | 0.9 | 7.8 | 0.03 | 0.84 | 0.45 | 91 | 1004.3 |
| 20260506041028 | 51 | 64 | 2.6 | 7.8 | 0.03 | 0.84 | 0.45 | 91 | 1004.3 |
| 20260506040530 | 51 | 0 | 1.7 | 7.8 | 0.03 | 0.84 | 0.45 | 91 | 1004.3 |
| 20260506040049 | 51 | 20 | 2.6 | 7.8 | 0.03 | 0.83 | 0.44 | 90 | 1004.3 |
| 20260506035531 | 51 | 35 | 1.7 | 6.1 | 0.03 | 0.83 | 0.44 | 91 | 1004.3 |
| 20260506035031 | 51 | 31 | 2.6 | 6.1 | 0.02 | 0.82 | 0.44 | 91 | 1004.4 |
| 20260506034540 | 51 | 30 | 1.7 | 5.2 | 0.02 | 0.82 | 0.44 | 91 | 1004.3 |
| 20260506034027 | 52 | 13 | 1.7 | 5.2 | 0.03 | 0.82 | 0.44 | 91 | 1004.4 |
| 20260506033530 | 52 | 0 | 0.9 | 4.3 | 0.02 | 0.81 | 0.43 | 91 | 1004.5 |
| 20260506033036 | 52 | 32 | 0.9 | 3.5 | 0.02 | 0.81 | 0.42 | 91 | 1004.6 |
| 20260506032530 | 52 | 26 | 0.9 | 6.1 | 0.02 | 0.81 | 0.42 | 91 | 1004.6 |
| 20260506032031 | 52 | 0 | 1.7 | 6.1 | 0.02 | 0.80 | 0.41 | 91 | 1004.6 |
| 20260506031541 | 52 | 331 | 0.0 | 2.6 | 0.02 | 0.80 | 0.41 | 91 | 1004.7 |
| 20260506031031 | 52 | 331 | 0.0 | 2.6 | 0.03 | 0.80 | 0.41 | 91 | 1004.7 |
| 20260506030527 | 52 | 60 | 0.0 | 2.6 | 0.03 | 0.80 | 0.41 | 91 | 1004.8 |
| 20260506030042 | 52 | 41 | 0.9 | 2.6 | 0.04 | 0.80 | 0.41 | 91 | 1004.8 |
| 20260506025530 | 52 | 0 | 0.0 | 4.3 | 0.04 | 0.80 | 0.41 | 91 | 1004.8 |
| 20260506025033 | 52 | 37 | 0.9 | 4.3 | 0.05 | 0.80 | 0.41 | 91 | 1004.8 |
| 20260506024544 | 52 | 32 | 0.9 | 4.3 | 0.05 | 0.79 | 0.40 | 91 | 1004.8 |
| 20260506024031 | 52 | 62 | 1.7 | 4.3 | 0.06 | 0.79 | 0.40 | 91 | 1004.9 |
| 20260506023529 | 52 | 41 | 1.7 | 3.5 | 0.06 | 0.79 | 0.40 | 91 | 1004.9 |
| 20260506023040 | 52 | 62 | 0.9 | 3.5 | 0.06 | 0.78 | 0.40 | 91 | 1005.0 |
| 20260506022530 | 52 | 0 | 0.9 | 6.1 | 0.07 | 0.78 | 0.40 | 91 | 1005.0 |
| 20260506022030 | 52 | 70 | 1.7 | 6.1 | 0.07 | 0.77 | 0.39 | 91 | 1005.0 |
| 20260506021553 | 52 | 44 | 1.7 | 4.3 | 0.07 | 0.77 | 0.39 | 91 | 1005.0 |
| 20260506021031 | 52 | 0 | 0.9 | 3.5 | 0.07 | 0.77 | 0.38 | 91 | 1005.1 |
| 20260506020531 | 52 | 0 | 0.9 | 3.5 | 0.07 | 0.76 | 0.37 | 91 | 1005.1 |
| 20260506020038 | 52 | 32 | 1.7 | 3.5 | 0.07 | 0.75 | 0.37 | 91 | 1005.2 |
| 20260506015531 | 52 | 45 | 1.7 | 6.1 | 0.08 | 0.75 | 0.37 | 91 | 1005.2 |
| 20260506015028 | 52 | 41 | 0.9 | 6.1 | 0.08 | 0.74 | 0.36 | 91 | 1005.2 |
| 20260506014539 | 52 | 45 | 1.7 | 5.2 | 0.08 | 0.74 | 0.35 | 91 | 1005.1 |
| 20260506014027 | 52 | 35 | 0.9 | 4.3 | 0.08 | 0.73 | 0.34 | 91 | 1005.3 |
| 20260506013527 | 52 | 66 | 1.7 | 5.2 | 0.09 | 0.73 | 0.34 | 91 | 1005.3 |
| 20260506013041 | 52 | 70 | 1.7 | 5.2 | 0.09 | 0.72 | 0.33 | 91 | 1005.3 |
| 20260506012527 | 52 | 58 | 1.7 | 5.2 | 0.09 | 0.71 | 0.33 | 91 | 1005.3 |
| 20260506012028 | 52 | 58 | 0.0 | 3.5 | 0.08 | 0.70 | 0.32 | 91 | 1005.4 |
| 20260506011549 | 52 | 65 | 0.9 | 5.2 | 0.08 | 0.70 | 0.31 | 91 | 1005.5 |
| 20260506011032 | 52 | 0 | 0.9 | 7.0 | 0.08 | 0.69 | 0.30 | 91 | 1005.4 |
| 20260506010530 | 52 | 56 | 1.7 | 7.0 | 0.08 | 0.68 | 0.29 | 91 | 1005.4 |
| 20260506010048 | 52 | 0 | 0.9 | 3.5 | 0.08 | 0.67 | 0.29 | 91 | 1005.5 |
| 20260506005531 | 52 | 70 | 0.9 | 6.1 | 0.08 | 0.66 | 0.28 | 91 | 1005.6 |
| 20260506005031 | 52 | 54 | 1.7 | 6.1 | 0.09 | 0.66 | 0.27 | 91 | 1005.6 |
| 20260506004538 | 52 | 64 | 1.7 | 6.1 | 0.09 | 0.65 | 0.26 | 91 | 1005.7 |
| 20260506004029 | 52 | 58 | 2.6 | 5.2 | 0.10 | 0.64 | 0.25 | 91 | 1005.7 |
| 20260506003528 | 52 | 36 | 1.7 | 7.8 | 0.11 | 0.63 | 0.25 | 91 | 1005.7 |
| 20260506003040 | 53 | 49 | 1.7 | 7.8 | 0.11 | 0.62 | 0.24 | 91 | 1005.8 |
| 20260506002530 | 53 | 62 | 2.6 | 7.8 | 0.11 | 0.62 | 0.23 | 91 | 1005.8 |
| 20260506002028 | 53 | 45 | 1.7 | 6.1 | 0.11 | 0.61 | 0.22 | 91 | 1005.9 |
| 20260506001543 | 53 | 49 | 0.9 | 3.5 | 0.11 | 0.61 | 0.22 | 91 | 1006.0 |
| 20260506001028 | 53 | 59 | 0.9 | 3.5 | 0.11 | 0.60 | 0.22 | 91 | 1006.0 |
| 20260506000527 | 53 | 24 | 0.9 | 3.5 | 0.11 | 0.59 | 0.21 | 91 | 1006.1 |
| 20260506000042 | 53 | 53 | 0.0 | 2.6 | 0.11 | 0.59 | 0.20 | 90 | 1006.1 |
| 20260505235530 | 53 | 53 | 0.9 | 2.6 | 0.11 | 0.59 | 0.18 | 91 | 1006.2 |
| 20260505235031 | 54 | 24 | 0.9 | 2.6 | 0.11 | 0.58 | 0.18 | 91 | 1006.2 |
| 20260505234604 | 54 | 6 | 0.0 | 1.7 | 0.10 | 0.56 | 0.16 | 91 | 1006.3 |
| 20260505234031 | 54 | 72 | 0.0 | 2.6 | 0.10 | 0.55 | 0.15 | 91 | 1006.3 |
| 20260505233527 | 54 | 0 | 0.0 | 2.6 | 0.09 | 0.54 | 0.14 | 91 | 1006.3 |